Location: Krakow
(50.0830°N, 19.9170°E)
Time: 11:59:26
(UTC+01:00)

Explorer 7 - All Passes

Search period start: 15 March 2026 00:00
Search period end: 25 March 2026 00:00
Orbit: 430 x 540 km, 50.2° (Epoch: 14 March)

Date Brightness Start Highest point End Pass type
(mag) Time Alt. Az. Time Alt. Az. Time Alt. Az.
15 Mar - 05:04:21 10° SSW 05:07:28 29° SSE 05:10:31 10° E visible
15 Mar - 06:42:02 10° WSW 06:45:33 80° SSE 06:48:59 10° E daylight
15 Mar - 08:20:26 10° W 08:23:55 88° S 08:27:20 10° E daylight
15 Mar - 09:58:53 10° W 10:02:04 36° SSW 10:05:14 10° SE daylight
16 Mar - 04:37:53 10° SSW 04:40:59 28° SSE 04:44:00 10° E visible
16 Mar - 06:15:31 10° WSW 06:19:03 79° SSE 06:22:30 10° E daylight
16 Mar - 07:53:56 10° W 07:57:24 89° S 08:00:51 10° E daylight
16 Mar - 09:32:21 10° W 09:35:34 37° SSW 09:38:46 10° SE daylight
17 Mar - 04:11:23 10° SSW 04:14:27 27° SSE 04:17:27 10° E visible
17 Mar - 05:48:58 10° WSW 05:52:30 77° SSE 05:55:58 10° E daylight
17 Mar - 07:27:22 10° W 07:30:52 90° NNW 07:34:18 10° E daylight
17 Mar - 09:05:48 10° W 09:09:03 39° SSW 09:12:16 10° SE daylight
18 Mar - 03:44:51 10° SSW 03:47:53 26° SSE 03:50:52 10° E visible
18 Mar - 05:22:23 10° WSW 05:25:56 75° SSE 05:29:24 10° E daylight
18 Mar - 07:00:46 10° W 07:04:17 89° NNE 07:07:44 10° E daylight
18 Mar - 08:39:12 10° W 08:42:29 40° SSW 08:45:43 10° SE daylight
19 Mar - 03:18:16 10° SSW 03:21:17 25° SSE 03:24:15 10° E visible
19 Mar - 04:55:44 10° WSW 04:59:19 74° SSE 05:02:48 10° E visible
19 Mar - 06:34:08 10° W 06:37:40 88° N 06:41:07 10° E daylight
19 Mar - 08:12:34 10° W 08:15:52 42° SSW 08:19:07 10° SE daylight
19 Mar - 09:52:49 10° SW 09:53:30 10° SW 09:54:10 10° SSW daylight
20 Mar - 02:51:40 10° SSW 02:54:39 24° SSE 02:57:34 10° E visible
20 Mar - 04:29:04 10° WSW 04:32:39 72° SSE 04:36:09 10° E visible
20 Mar - 06:07:28 10° W 06:11:00 87° N 06:14:28 10° E daylight
20 Mar - 07:45:53 10° W 07:49:13 44° SSW 07:52:30 10° SE daylight
20 Mar - 09:25:49 10° WSW 09:26:52 11° SW 09:27:55 10° SSW daylight
21 Mar - 02:25:01 10° SSW 02:27:59 23° SE 02:30:51 10° E visible
21 Mar - 04:02:21 10° WSW 04:05:58 70° SSE 04:09:28 10° E visible
21 Mar - 05:40:44 10° W 05:44:18 87° N 05:47:47 10° E daylight
21 Mar - 07:19:10 10° W 07:22:32 46° SSW 07:25:50 10° SE daylight
21 Mar - 08:58:53 10° WSW 09:00:12 12° SW 09:01:31 10° SSW daylight
22 Mar - 01:58:20 10° SSW 02:01:15 22° SE 02:04:07 10° E visible
22 Mar - 03:35:36 10° WSW 03:39:13 68° SSE 03:42:44 10° E visible
22 Mar - 05:13:59 10° W 05:17:34 86° N 05:21:03 10° E daylight
22 Mar - 06:52:25 10° W 06:55:48 48° SSW 06:59:07 10° SE daylight
22 Mar - 08:31:57 10° WSW 08:33:29 12° SW 08:35:01 10° SSW daylight
23 Mar - 01:31:36 10° SSW 01:34:29 21° SE 01:37:19 10° E visible
23 Mar - 03:08:48 10° WSW 03:12:27 66° SSE 03:15:59 10° E visible
23 Mar - 04:47:10 10° W 04:50:47 86° N 04:54:17 10° E visible
23 Mar - 06:25:36 10° W 06:29:02 50° SSW 06:32:23 10° SE daylight
23 Mar - 08:05:01 10° WSW 08:06:44 13° SW 08:08:28 10° S daylight
24 Mar - 01:04:51 10° SSW 01:07:42 20° SE 01:10:28 10° E night (unlit)
24 Mar - 02:41:58 10° WSW 02:45:38 64° SSE 02:49:10 10° E visible
24 Mar - 04:20:20 10° W 04:23:58 86° N 04:27:28 10° E visible
24 Mar - 05:58:46 10° W 06:02:13 52° SSW 06:05:35 10° SE daylight
24 Mar - 07:38:03 10° WSW 07:39:57 14° SW 07:41:50 10° S daylight
